• Em Portugal
  • Lista de países
  • Para 7 dias
  • Temperatura da água
  • Mapas de satélite
  • Mapa do tempo
  • Widgets de tempo
  • user-avatar
    Iniciar Sessão

    Previsão horária em Porto Velho

    Hoje, 20 Setembro, Quarta-feira

    Tempo Temperatura Precipitação Vento Pressão Humidade
    00:00 +26°C° 0 mm 0 m/s 751 mmHg 51%
    01:00 +26°C° 0 mm 0 m/s 751 mmHg 53%
    02:00 +25°C° 0 mm 0 m/s 751 mmHg 55%
    03:00 +24°C° 0 mm 0 m/s 751 mmHg 57%
    04:00 +24°C° 0 mm 0 m/s 751 mmHg 59%
    05:00 +23°C° 0 mm 0 m/s 751 mmHg 61%
    06:00 +25°C° 0 mm 0 m/s 751 mmHg 56%
    07:00 +27°C° 0 mm 0 m/s 752 mmHg 52%
    08:00 +29°C° 0 mm 0 m/s 752 mmHg 47%
    09:00 +33°C° 0 mm 0 m/s 752 mmHg 39%
    10:00 +37°C° 0 mm 0 m/s 752 mmHg 31%
    11:00 +41°C° 0 mm 0 m/s 752 mmHg 24%
    12:00 +40°C° 0 mm 0 m/s 751 mmHg 23%
    13:00 +40°C° 0 mm 0 m/s 750 mmHg 23%
    14:00 +43°C° 0 mm 1 m/s 749 mmHg 23%
    15:00 +42°C° 0 mm 1 m/s 748 mmHg 24%
    16:00 +41°C° 0 mm 1 m/s 748 mmHg 25%
    17:00 +40°C° 0 mm 1 m/s 748 mmHg 26%
    18:00 +37°C° 0 mm 1 m/s 748 mmHg 31%
    19:00 +34°C° 0 mm 1 m/s 748 mmHg 36%
    20:00 +32°C° 0 mm 1 m/s 749 mmHg 41%
    21:00 +31°C° 0 mm 1 m/s 749 mmHg 42%
    22:00 +31°C° 0 mm 1 m/s 749 mmHg 44%
    23:00 +30°C° 0 mm 1 m/s 750 mmHg 45%

    Amanhã, 21 Setembro, Quinta-feira

    Tempo Temperatura Precipitação Vento Pressão Humidade
    00:00 +30°C° 0 mm 1 m/s 749 mmHg 47%
    01:00 +29°C° 0 mm 1 m/s 749 mmHg 49%
    02:00 +27°C° 0 mm 0 m/s 749 mmHg 50%
    03:00 +26°C° 0 mm 0 m/s 749 mmHg 52%
    04:00 +26°C° 0 mm 0 m/s 749 mmHg 54%
    05:00 +25°C° 0 mm 0 m/s 749 mmHg 56%
    06:00 +27°C° 0 mm 0 m/s 750 mmHg 51%
    07:00 +29°C° 0 mm 0 m/s 750 mmHg 47%
    08:00 +31°C° 0 mm 0 m/s 751 mmHg 43%
    09:00 +36°C° 0 mm 1 m/s 751 mmHg 36%
    10:00 +40°C° 0 mm 1 m/s 751 mmHg 30%
    11:00 +43°C° 0 mm 1 m/s 751 mmHg 24%
    12:00 +42°C° 0 mm 1 m/s 750 mmHg 24%
    13:00 +42°C° 0 mm 1 m/s 749 mmHg 24%
    14:00 +38°C° 0 mm 0 m/s 748 mmHg 24%
    15:00 +37°C° 0 mm 0 m/s 748 mmHg 26%
    16:00 +36°C° 0 mm 0 m/s 747 mmHg 28%
    17:00 +36°C° 0 mm 0 m/s 747 mmHg 30%
    18:00 +34°C° 0 mm 0 m/s 747 mmHg 32%
    19:00 +33°C° 0 mm 0 m/s 748 mmHg 35%
    20:00 +31°C° 0 mm 0 m/s 748 mmHg 37%
    21:00 +30°C° 0 mm 0 m/s 749 mmHg 39%
    22:00 +32°C° 0 mm 1 m/s 749 mmHg 40%
    23:00 +31°C° 0 mm 1 m/s 750 mmHg 42%

    Depois de amanhã, 22 Setembro, Sexta-feira

    Tempo Temperatura Precipitação Vento Pressão Humidade
    00:00 +31°C° 0 mm 1 m/s 749 mmHg 43%
    01:00 +31°C° 0 mm 1 m/s 749 mmHg 44%
    02:00 +28°C° 0 mm 0 m/s 749 mmHg 46%
    03:00 +28°C° 0 mm 0 m/s 749 mmHg 46%
    04:00 +30°C° 0 mm 1 m/s 749 mmHg 47%
    05:00 +30°C° 0 mm 1 m/s 749 mmHg 48%
    06:00 +30°C° 0,1 mm 1 m/s 749 mmHg 49%
    07:00 +31°C° 0,1 mm 1 m/s 750 mmHg 49%
    08:00 +32°C° 0,1 mm 1 m/s 750 mmHg 50%
    09:00 +35°C° 0 mm 1 m/s 750 mmHg 41%
    10:00 +39°C° 0 mm 1 m/s 750 mmHg 32%
    11:00 +43°C° 0 mm 1 m/s 750 mmHg 23%
    12:00 +42°C° 0 mm 1 m/s 749 mmHg 23%
    13:00 +42°C° 0 mm 1 m/s 748 mmHg 23%
    14:00 +41°C° 0 mm 1 m/s 747 mmHg 24%
    15:00 +41°C° 0 mm 1 m/s 747 mmHg 24%
    16:00 +41°C° 0 mm 1 m/s 746 mmHg 24%
    17:00 +41°C° 0 mm 1 m/s 746 mmHg 25%
    18:00 +39°C° 0 mm 1 m/s 747 mmHg 29%
    19:00 +35°C° 0 mm 1 m/s 747 mmHg 33%
    20:00 +33°C° 0 mm 1 m/s 748 mmHg 38%
    21:00 +32°C° 0 mm 1 m/s 748 mmHg 40%
    22:00 +31°C° 0 mm 1 m/s 748 mmHg 43%
    23:00 +30°C° 0 mm 1 m/s 749 mmHg 46%

    23 Setembro, Sábado

    Tempo Temperatura Precipitação Vento Pressão Humidade
    00:00 +30°C° 0 mm 1 m/s 748 mmHg 49%
    01:00 +27°C° 0 mm 0 m/s 748 mmHg 52%
    02:00 +26°C° 0 mm 0 m/s 747 mmHg 54%
    03:00 +26°C° 0 mm 0 m/s 748 mmHg 56%
    04:00 +25°C° 0 mm 0 m/s 748 mmHg 58%
    05:00 +25°C° 0 mm 0 m/s 748 mmHg 60%
    06:00 +27°C° 0 mm 0 m/s 749 mmHg 55%
    07:00 +29°C° 0 mm 0 m/s 750 mmHg 50%
    08:00 +31°C° 0 mm 0 m/s 750 mmHg 45%
    09:00 +35°C° 0 mm 0 m/s 750 mmHg 37%
    10:00 +39°C° 0 mm 0 m/s 750 mmHg 29%
    11:00 +43°C° 0 mm 0 m/s 750 mmHg 21%
    12:00 +42°C° 0 mm 0 m/s 749 mmHg 23%
    13:00 +43°C° 0 mm 1 m/s 748 mmHg 24%
    14:00 +41°C° 0 mm 1 m/s 747 mmHg 26%
    15:00 +41°C° 0 mm 1 m/s 747 mmHg 27%
    16:00 +40°C° 0 mm 1 m/s 746 mmHg 28%
    17:00 +40°C° 0 mm 1 m/s 746 mmHg 30%
    18:00 +37°C° 0 mm 1 m/s 747 mmHg 33%
    19:00 +35°C° 0 mm 1 m/s 747 mmHg 37%
    20:00 +33°C° 0 mm 1 m/s 748 mmHg 40%
    21:00 +32°C° 0,1 mm 1 m/s 748 mmHg 45%
    22:00 +32°C° 0,1 mm 1 m/s 748 mmHg 50%
    23:00 +31°C° 0,1 mm 1 m/s 748 mmHg 55%

    24 Setembro, Domingo

    Tempo Temperatura Precipitação Vento Pressão Humidade
    00:00 +31°C° 0 mm 1 m/s 748 mmHg 55%
    01:00 +31°C° 0 mm 1 m/s 748 mmHg 55%
    02:00 +31°C° 0 mm 1 m/s 748 mmHg 55%
    03:00 +30°C° 0 mm 1 m/s 748 mmHg 57%
    04:00 +30°C° 0 mm 1 m/s 748 mmHg 59%
    05:00 +29°C° 0 mm 1 m/s 749 mmHg 61%
    06:00 +29°C° 0,6 mm 1 m/s 749 mmHg 66%
    07:00 +29°C° 0,6 mm 1 m/s 750 mmHg 72%
    08:00 +29°C° 0,6 mm 1 m/s 751 mmHg 78%
    09:00 +32°C° 0 mm 1 m/s 751 mmHg 65%
    10:00 +35°C° 0 mm 1 m/s 751 mmHg 52%
    11:00 +40°C° 0 mm 1 m/s 751 mmHg 39%
    12:00 +41°C° 0 mm 1 m/s 750 mmHg 34%
    13:00 +40°C° 0 mm 0 m/s 749 mmHg 30%
    14:00 +41°C° 0 mm 0 m/s 748 mmHg 26%
    15:00 +39°C° 0 mm 0 m/s 747 mmHg 31%
    16:00 +37°C° 0 mm 0 m/s 747 mmHg 36%
    17:00 +34°C° 0 mm 0 m/s 747 mmHg 41%
    18:00 +35°C° 0 mm 1 m/s 747 mmHg 47%
    19:00 +33°C° 0 mm 1 m/s 748 mmHg 52%
    20:00 +32°C° 0 mm 1 m/s 748 mmHg 58%
    21:00 +30°C° 0,4 mm 1 m/s 748 mmHg 67%
    22:00 +29°C° 0,4 mm 1 m/s 749 mmHg 75%
    23:00 +28°C° 0,4 mm 2 m/s 749 mmHg 84%

    25 Setembro, Segunda-feira

    Tempo Temperatura Precipitação Vento Pressão Humidade
    00:00 +27°C° 0 mm 2 m/s 749 mmHg 85%
    01:00 +27°C° 0 mm 1 m/s 749 mmHg 87%
    02:00 +27°C° 0 mm 1 m/s 749 mmHg 88%
    03:00 +27°C° 0 mm 1 m/s 749 mmHg 90%
    04:00 +26°C° 0 mm 1 m/s 749 mmHg 91%
    05:00 +24°C° 0 mm 0 m/s 749 mmHg 93%
    06:00 +25°C° 0 mm 0 m/s 750 mmHg 89%
    07:00 +28°C° 0 mm 1 m/s 750 mmHg 86%
    08:00 +28°C° 0 mm 1 m/s 751 mmHg 82%
    09:00 +31°C° 0 mm 1 m/s 751 mmHg 70%
    10:00 +34°C° 0 mm 1 m/s 751 mmHg 58%
    11:00 +37°C° 0 mm 1 m/s 751 mmHg 46%
    12:00 +39°C° 0 mm 1 m/s 750 mmHg 43%
    13:00 +37°C° 0 mm 0 m/s 749 mmHg 39%
    14:00 +38°C° 0 mm 0 m/s 748 mmHg 36%
    15:00 +39°C° 0,1 mm 1 m/s 747 mmHg 40%
    16:00 +37°C° 0,1 mm 1 m/s 747 mmHg 44%
    17:00 +35°C° 0,1 mm 1 m/s 746 mmHg 49%
    18:00 +33°C° 0,9 mm 1 m/s 747 mmHg 60%
    19:00 +31°C° 0,9 mm 1 m/s 747 mmHg 72%
    20:00 +28°C° 0,9 mm 1 m/s 748 mmHg 84%
    21:00 +28°C° 0,3 mm 2 m/s 748 mmHg 86%
    22:00 +27°C° 0,3 mm 2 m/s 749 mmHg 89%
    23:00 +27°C° 0,3 mm 2 m/s 750 mmHg 91%
    Mostrar mais